O3b星座 FM10星 (O3B FM10)

导读

O3B FM10是O3B网络公司的中地球轨道通信卫星,于2014年12月18日发射升空。它属于O3B“其他3亿人”星座,旨在为全球偏远地区提供高速互联网连接。卫星运行在中地球轨道,可降低通信延迟,助力填补数字鸿沟,促进未覆盖区域互联互通,推动当地数字化发展与信息普及。

基本信息
目录编号:
40348
目录名称:
O3B FM10
国际标识:
2014-083A
轨道中心:
EARTH
卫星名称:
O3b星座 FM10星
卫星全名:
O3b星座 FM10星 (O3B FM10)
卫星状态:
在轨 (已飞行4194 天)
发射日期:
2014-12-18 UTC
国别 :
(O3B)
星等 :
--
轨道信息
数据来源 国际轨道数据 AOE轨道数据
星历时间 2026-06-12T02:17:47+0800
1天前
查看轨道信息
2026-06-12T15:00:00+0800
11小时前
查看轨道信息
半长轴 14444.035km 14444.035km
偏心率 0.0002685 0.0002718
轨道倾角 0.039° 0.039°
近地点辐角 111.014° 112.028°
升交点赤经 329.427° 329.788°
平近点角 279.591° 151.505°
近地点 8062.019km 8061.972km
远地点 8069.777km 8069.824km
周期 287.934分钟 287.934分钟
每日圈数 5.001151 5.001151
详细信息
平衡模式:
三轴稳定
覆盖范围:
全球
运营商:
欧洲卫星公司
运营商所在国:
卢森堡
制造商(研发单位):
阿莱尼亚宇航公司
制造商所在国:
意大利
使用方式:
暂无
卫星简介
O3b卫星星座分为O3b FM卫星星座和O3b mPOWER卫星星座,前者是由阿莱尼亚宇航公司制造的第一代O3b卫星星座,后者是由波音公司制造的第二代O3b卫星星座。O3b卫星初始星座运行于赤道圆轨道,轨道高度8062公里,能够覆盖全球南北纬45°之间所有地方,在南、北纬45°~62°范围内也能提供一定的服务。该卫星仍在工作。
2D轨道图
3D轨道图
轨道高度分析图
轨道倾角分析图
轨道综合分析图
查看轨道综合分析图